Weather in Krasnopolye

Ukraine / Mykolaiv District     46°51′48″N   31°14′56″E
temp.,
°C
wind,
m/s
gust,
m/s
humid.,
%
clouds,
%
prec.,
mm/h
press.,
hPa
HPBL,
m
22 may, sun
sun2200:00+18wnw478899 1.1 1008127
03:00+17nnw51075100 1.3 1008417
06:00+14nw4117789 0.0 1008396
09:00+16nw5105985 0.0 1008790
12:00+22wnw9123719 0.0 10062425
15:00+20nw1113435 0.0 10062202
18:00+19nw9134522 0.0 10062013
21:00+15nw712526 0.0 10071063
23 may, mon
mon2300:00+11wnw5116778 0.0 1008346
03:00+11wnw61074100 0.0 1008561
06:00+12nw5876100 0.0 1008717
09:00+12nnw5781100 0.2 1008756
12:00+16nne574794 0.1 10091858
15:00+17nne6742100 0.1 10092088
18:00+16nne454325 0.0 10091280
21:00+13n235776 0.0 101160
24 may, tue
tue2400:00+13n225768 0.0 101239
03:00+10n33715 0.0 101339
06:00+9nne346737 0.0 101365
09:00+14ne344685 0.0 1015432
12:00+18nw243321 0.0 10152342
15:00+19sw343587 0.0 10151689
18:00+17ssw554777 0.0 1016520
21:00+15sw4753100 0.0 1016230
25 may, wed
wed2500:00+12w33645 0.0 101737
03:00+11w227328 0.0 101816
06:00+11sw117781 0.0 101814
09:00+18s45525 0.0 1019897
12:00+20ssw77435 0.0 10201286
15:00+19ssw78435 0.0 10191180
18:00+17ssw684941 0.0 1019785
21:00+14s597123 0.0 1019280
26 may, thu
thu2600:00+15s6117268 0.0 1019465
03:00+15s71270100 0.0 1018598
06:00+15s8137446 0.1 1017545
09:00+18ssw1013611 0.1 1016752
12:00+19ssw101261100 0.1 1016865
15:00+19ssw89670 0.1 1015603
18:00+17ssw78755 0.1 1014388
21:00+15ssw589573 0.9 1015257